Weather History for Ingleside, TX

Change the Weather History Date:

Thursday, February 7, 2013

  Actual Average Record
Temperature  
Mean Temperature 68 °F -  
Max Temperature 74 °F - - ()
Min Temperature 62 °F - - ()
Cooling Degree Days 3    
Growing Degree Days 18 (Base 50)    
Moisture  
Dew Point 65 °F    
Average Humidity 91    
Maximum Humidity 96    
Minimum Humidity 80    
Precipitation  
Precipitation 0.00 in - - ()
Sea Level Pressure  
Sea Level Pressure 29.93 in    
Wind  
Wind Speed 4 mph (NE)    
Max Wind Speed 8 mph    
Max Gust Speed -    
Visibility 7 miles    
Events Fog    
T = Trace of Precipitation, MM = Missing Value Source: NWS Daily Summary

Daily Weather History Graph

Daily Weather History Graph

Search for Another Location

Airport:

Trip Planner

Search our weather history database for the weather conditions in past years. The results will help you decide how hot, cold, wet, or windy it might be!

Date:

Astronomy

Feb. 07, 2013 Rise Set
Actual Time 7:12 AM CST 6:14 PM CST
Civil Twilight 6:47 AM CST 6:38 PM CST
Nautical Twilight 6:19 AM CST 7:06 PM CST
Astronomical Twilight 5:52 AM CST 7:33 PM CST
Moon 4:44 AM CST (2/7) 3:46 PM CST (2/7)
Length of Visible Light 11h 50m
Length of Day
11h 02m
Waning Crescent, 9% of the Moon is Illuminated
Feb 7
Waning Crescent
Feb 10
New
Feb 17
First Quarter
Feb 25
Full
Mar 4
Last Quarter

Hourly Weather History & Observations

Time (CST) Temp. Dew Point Humidity Pressure Visibility Wind Dir Wind Speed Gust Speed Precip Events Conditions
12:15 AM 64.0 °F 61.7 °F 92% 29.90 in 10.0 mi East 5.8 mph - N/A   Clear
12:35 AM 64.0 °F 61.9 °F 93% 29.90 in 10.0 mi East 5.8 mph - N/A   Clear
12:55 AM 64.0 °F 61.9 °F 93% 29.90 in 10.0 mi East 4.6 mph - N/A   Clear
1:15 AM 63.9 °F 61.7 °F 93% 29.90 in 10.0 mi East 5.8 mph - N/A   Clear
1:35 AM 63.9 °F 61.9 °F 93% 29.90 in 10.0 mi ENE 5.8 mph - N/A   Clear
1:55 AM 63.9 °F 61.7 °F 93% 29.90 in 10.0 mi NE 4.6 mph - N/A   Clear
2:15 AM 63.0 °F 61.2 °F 94% 29.90 in 7.0 mi NE 5.8 mph - N/A   Scattered Clouds
2:35 AM 62.4 °F 60.6 °F 94% 29.89 in 7.0 mi NNE 4.6 mph - N/A   Scattered Clouds
3:15 AM 62.4 °F 60.8 °F 94% 29.89 in 7.0 mi NNE 3.5 mph - N/A   Overcast
3:35 AM 62.6 °F 61.2 °F 95% 29.89 in 7.0 mi NNE 4.6 mph - N/A   Overcast
3:55 AM 63.3 °F 62.1 °F 96% 29.89 in 7.0 mi NNE 4.6 mph - N/A   Overcast
4:15 AM 63.9 °F 62.6 °F 96% 29.89 in 7.0 mi NNE 3.5 mph - N/A   Overcast
4:35 AM 64.4 °F 63.0 °F 95% 29.89 in 7.0 mi NNE 3.5 mph - N/A   Overcast
4:55 AM 64.4 °F 63.0 °F 95% 29.88 in 7.0 mi NNE 3.5 mph - N/A   Overcast
5:15 AM 64.6 °F 63.1 °F 95% 29.89 in 5.0 mi NNE 3.5 mph - N/A   Overcast
5:35 AM 64.8 °F 63.3 °F 95% 29.89 in 4.0 mi NNE 3.5 mph - N/A   Overcast
6:15 AM 64.9 °F 63.7 °F 96% 29.89 in 5.0 mi NNE 3.5 mph - N/A   Overcast
6:35 AM 65.3 °F 63.9 °F 95% 29.89 in 5.0 mi NE 3.5 mph - N/A   Overcast
6:55 AM 65.3 °F 64.0 °F 96% 29.90 in 5.0 mi NNE 3.5 mph - N/A   Overcast
7:15 AM 65.5 °F 64.4 °F 96% 29.90 in 5.0 mi NE 3.5 mph - N/A   Overcast
7:35 AM 65.5 °F 64.4 °F 96% 29.91 in 4.0 mi NE 3.5 mph - N/A   Overcast
7:55 AM 65.8 °F 64.6 °F 96% 29.92 in 5.0 mi ENE 4.6 mph - N/A   Overcast
8:15 AM 66.2 °F 64.9 °F 96% 29.93 in 5.0 mi ENE 3.5 mph - N/A   Overcast
8:35 AM 66.4 °F 65.3 °F 96% 29.94 in 7.0 mi Calm Calm - N/A   Overcast
8:55 AM 67.1 °F 65.5 °F 95% 29.94 in 7.0 mi ENE 3.5 mph - N/A   Overcast
9:15 AM 67.6 °F 65.8 °F 94% 29.94 in 7.0 mi ENE 4.6 mph - N/A   Overcast
9:35 AM 68.0 °F 66.0 °F 93% 29.95 in 5.0 mi ENE 4.6 mph - N/A   Overcast
9:55 AM 68.4 °F 66.2 °F 93% 29.96 in 5.0 mi NE 3.5 mph - N/A   Overcast
10:15 AM 69.1 °F 66.7 °F 92% 29.96 in 5.0 mi NE 3.5 mph - N/A   Overcast
10:35 AM 69.6 °F 66.9 °F 91% 29.96 in 5.0 mi NE 3.5 mph - N/A   Overcast
10:55 AM 70.3 °F 67.1 °F 89% 29.96 in 5.0 mi Calm Calm - N/A   Overcast
11:15 AM 70.9 °F 67.3 °F 88% 29.96 in 5.0 mi NNE 3.5 mph - N/A   Overcast
11:35 AM 71.4 °F 67.6 °F 88% 29.95 in 5.0 mi North 4.6 mph - N/A   Overcast
11:55 AM 72.3 °F 68.0 °F 86% 29.95 in 7.0 mi NNW 3.5 mph - N/A   Overcast
12:15 PM 73.2 °F 68.2 °F 84% 29.95 in 7.0 mi NNW 5.8 mph - N/A   Overcast
12:35 PM 73.4 °F 68.2 °F 84% 29.94 in 7.0 mi Calm Calm - N/A   Overcast
12:55 PM 73.0 °F 68.2 °F 85% 29.94 in 7.0 mi NW 4.6 mph - N/A   Overcast
1:15 PM 73.6 °F 68.5 °F 84% 29.94 in 10.0 mi WNW 4.6 mph - N/A   Overcast
1:35 PM 73.9 °F 68.9 °F 84% 29.92 in 10.0 mi NW 6.9 mph - N/A   Overcast
1:55 PM 74.3 °F 68.9 °F 83% 29.92 in 10.0 mi NW 5.8 mph - N/A   Overcast
2:15 PM 73.9 °F 68.5 °F 83% 29.92 in 10.0 mi NNW 8.1 mph - N/A   Overcast
2:35 PM 73.0 °F 68.2 °F 85% 29.91 in 10.0 mi North 6.9 mph - N/A   Overcast
2:55 PM 72.9 °F 68.0 °F 85% 29.91 in 10.0 mi NNE 6.9 mph - N/A   Overcast
3:15 PM 73.4 °F 67.8 °F 83% 29.91 in 10.0 mi NNE 6.9 mph - N/A   Overcast
3:35 PM 73.4 °F 67.6 °F 82% 29.90 in 10.0 mi NNE 4.6 mph - N/A   Scattered Clouds
3:55 PM 73.8 °F 67.6 °F 81% 29.90 in 10.0 mi NNE 6.9 mph - N/A   Mostly Cloudy
4:15 PM 73.0 °F 67.5 °F 83% 29.90 in 10.0 mi NE 5.8 mph - N/A   Overcast
4:35 PM 73.6 °F 67.5 °F 81% 29.91 in 10.0 mi North 4.6 mph - N/A   Mostly Cloudy
4:55 PM 74.1 °F 67.5 °F 80% 29.91 in 10.0 mi Calm Calm - N/A   Scattered Clouds
5:15 PM 73.9 °F 67.5 °F 80% 29.91 in 10.0 mi ENE 3.5 mph - N/A   Overcast
5:35 PM 72.7 °F 67.3 °F 83% 29.91 in 10.0 mi ESE 6.9 mph - N/A   Overcast
5:55 PM 70.7 °F 66.9 °F 88% 29.92 in 10.0 mi East 6.9 mph - N/A   Overcast
6:15 PM 70.0 °F 66.6 °F 89% 29.93 in 10.0 mi ESE 8.1 mph - N/A   Overcast
6:35 PM 69.6 °F 66.4 °F 89% 29.93 in 10.0 mi East 5.8 mph - N/A   Overcast
6:55 PM 69.1 °F 66.4 °F 91% 29.93 in 10.0 mi ESE 4.6 mph - N/A   Overcast
7:15 PM 68.9 °F 66.2 °F 91% 29.94 in 10.0 mi ESE 3.5 mph - N/A   Overcast
7:35 PM 68.4 °F 66.0 °F 92% 29.94 in 10.0 mi East 3.5 mph - N/A   Overcast
7:55 PM 68.7 °F 66.2 °F 92% 29.95 in 10.0 mi Calm Calm - N/A   Overcast
8:15 PM 68.2 °F 65.7 °F 92% 29.95 in 10.0 mi SE 3.5 mph - N/A   Mostly Cloudy
8:35 PM 67.1 °F 64.9 °F 93% 29.95 in 7.0 mi ESE 3.5 mph - N/A   Clear
8:55 PM 66.7 °F 64.9 °F 94% 29.96 in 7.0 mi ESE 4.6 mph - N/A   Clear
9:15 PM 65.7 °F 64.0 °F 94% 29.96 in 3.0 mi SE 5.8 mph - N/A   Clear
9:35 PM 64.9 °F 63.5 °F 95% 29.97 in 4.0 mi SE 3.5 mph - N/A   Clear
9:55 PM 65.1 °F 63.9 °F 96% 29.97 in 3.0 mi SSE 3.5 mph - N/A   Clear
10:15 PM 64.6 °F 63.5 °F 96% 29.97 in 0.5 mi Calm Calm - N/A Fog Fog
10:35 PM 64.6 °F 63.5 °F 96% 29.98 in 0.5 mi SSE 3.5 mph - N/A Fog Fog
10:55 PM 64.2 °F 63.0 °F 96% 29.98 in 0.2 mi SSE 3.5 mph - N/A Fog Fog
11:15 PM 63.5 °F 62.4 °F 96% 29.99 in 0.2 mi Calm Calm - N/A Fog Fog
11:35 PM 63.5 °F 62.4 °F 96% 29.99 in 1.8 mi Calm Calm - N/A   Mist
11:55 PM 62.4 °F 61.3 °F 96% 29.99 in 0.8 mi Calm Calm - N/A   Mostly Cloudy